Location: Arboucave
(43.6130°N, 0.4343°W)
Time: 13:38:48
(UTC+00:00)

Cosmos 489 Rocket - Pass Details

Date: 17 November 2025
Orbit: 952 x 982 km, 74.0° (Epoch: 06 December)

Event Time Altitude Azimuth Distance (km) Brightness Sun altitude
Rises 18:34:29 0° 339° (NNW) 3,663 7.7 -21.6°
Reaches altitude 10° 18:37:02 10° 340° (NNW) 2,709 7.0 -22.0°
Maximum altitude 18:43:19 86° 69° (ENE) 967 4.3 -23.2°
Drops below altitude 10° 18:49:31 10° 159° (SSE) 2,674 6.6 -24.3°
Sets 18:52:01 0° 160° (SSE) 3,614 7.3 -24.7°
